RH
67 67 70 70 68 67 64 63 67 69 64 57 54 52 50 51 52 49 51 56 60 68 78 83 85 88 90 89 87 83 78 76 77 77 79 84 84 79 74 65 49 36 30 26 23 21 19 20 22 25 30 35 39 42 46 46 44 43 42 40 42 52 70 80 66 50 49 50 57 72 83 89 89 88 94 102 102 97 97 100 101 96 86 77 67
74 74 76 76 72 68 63 60 62 66 68 64 62 62 60 57 56 53 49 50 59 71 79 80 79 82 87 92 93 89 82 77 74 73 74 78 79 77 75 72 63 54 43 33 27 24 22 21 20 22 25 28 34 38 42 46 47 45 44 43 41 40 51 66 62 47 41 38 40 56 75 89 95 93 92 99 103 101 98 98 100 102 99 91 82
82 79 77 76 74 68 60 59 59 61 66 67 65 67 69 67 61 58 53 49 57 71 78 78 78 81 86 93 96 94 90 86 81 78 79 82 82 80 79 77 74 70 62 52 42 33 27 23 20 20 21 23 27 33 37 42 45 47 46 44 45 43 44 57 67 63 56 52 44 40 48 63 77 85 90 97 101 102 101 99 97 99 102 101 97
85 81 76 73 72 69 64 59 58 59 65 72 71 67 69 73 70 65 60 55 59 69 73 78 84 85 86 92 98 99 97 92 86 84 87 91 92 89 87 86 83 79 75 69 62 52 42 34 28 24 21 20 22 25 30 36 40 44 46 45 46 47 45 51 63 69 73 80 74 56 45 48 57 66 73 85 99 104 102 98 95 92 96 102 103
84 81 79 77 74 73 70 64 61 64 67 70 72 69 71 74 73 68 63 57 58 61 65 76 89 91 87 89 97 101 99 93 87 84 87 92 95 95 95 92 86 83 81 77 71 65 59 51 44 36 28 23 21 21 23 28 33 38 42 44 45 46 46 47 53 62 71 81 84 79 72 65 64 67 65 66 80 97 103 101 95 87 84 92 101
88 84 84 83 81 78 77 76 72 70 68 67 71 78 81 78 72 70 67 59 55 56 63 77 92 94 89 89 95 99 97 91 85 82 84 90 96 98 94 86 80 79 80 78 72 68 65 62 58 51 42 33 26 23 22 22 25 29 34 40 42 44 45 45 46 51 60 67 70 77 89 91 85 84 82 71 65 73 88 100 102 94 81 78 86
95 93 90 89 88 83 81 82 79 74 72 71 74 81 87 84 77 72 68 64 62 62 66 78 92 95 92 92 95 97 95 90 87 83 82 87 94 96 90 80 76 77 77 75 72 70 68 67 65 60 53 45 37 30 26 24 24 25 27 32 37 40 42 44 44 44 48 54 55 58 74 91 99 101 99 92 80 68 66 80 95 101 95 85 82
97 93 87 82 81 79 78 78 77 74 72 73 76 82 91 97 92 84 80 81 81 78 76 85 95 96 92 89 90 92 94 94 92 85 81 86 92 94 93 87 81 78 76 75 73 71 71 70 69 66 60 52 45 37 32 28 25 25 26 28 31 35 39 41 43 44 44 45 47 48 52 64 81 96 101 103 101 90 76 72 81 92 96 90 86
93 86 78 73 73 78 82 82 83 82 78 80 85 91 100 105 99 93 92 91 88 85 84 88 93 91 86 86 87 89 94 100 100 88 79 82 89 92 95 95 91 84 80 78 76 74 75 75 74 72 67 57 47 39 35 32 30 28 27 30 34 34 36 40 39 40 44 44 43 44 45 48 55 69 87 100 104 102 98 92 89 91 93 91 92
93 85 79 77 81 89 94 95 98 97 95 97 100 102 103 100 94 91 91 87 83 83 85 88 92 92 90 90 92 92 95 101 104 92 78 78 84 88 92 94 94 90 85 81 79 78 80 82 82 81 75 65 53 44 37 31 31 33 29 36 53 60 54 50 44 38 40 44 45 43 44 46 48 50 63 83 95 98 100 101 99 98 99 100 101
92 89 85 85 93 102 102 102 102 101 101 103 104 106 106 100 96 95 93 91 89 90 92 95 99 98 97 96 94 93 94 100 103 95 81 76 79 82 84 86 87 86 84 83 83 84 84 84 87 87 84 76 67 61 56 44 35 34 32 37 64 88 88 77 64 50 44 44 46 48 47 46 49 51 53 63 79 90 92 91 93 93 95 99 102
91 93 94 94 101 105 102 100 100 99 100 101 103 106 106 104 104 103 101 100 100 99 100 102 104 103 102 101 97 93 94 96 100 97 85 78 79 80 81 82 82 82 81 81 83 85 86 87 89 92 92 89 80 74 76 74 59 45 35 34 54 82 97 97 87 71 59 52 53 59 62 59 59 62 63 63 70 84 92 88 83 81 82 87 92
93 96 99 98 101 103 101 100 100 100 100 100 100 101 102 101 103 103 102 101 101 102 103 104 104 103 101 100 98 96 93 90 92 95 89 80 76 77 79 81 83 85 86 85 85 85 84 83 86 91 97 101 95 83 82 92 92 76 55 43 47 64 81 94 100 93 78 67 68 76 82 83 81 80 83 83 81 83 92 93 88 81 77 77 80
98 100 102 98 97 99 100 100 100 100 100 100 100 101 101 100 100 99 98 97 97 99 100 102 103 104 102 102 102 101 99 93 91 92 91 86 79 75 75 78 82 87 90 90 89 89 87 83 82 88 97 103 102 95 87 90 100 101 89 73 64 67 75 82 92 100 97 86 83 90 95 97 97 96 96 99 97 89 87 90 92 90 84 81 80
104 106 105 102 100 100 100 100 100 101 101 102 102 102 102 101 100 98 96 94 95 97 99 102 105 106 105 106 106 105 103 99 96 94 92 91 88 82 79 79 80 85 90 92 90 90 90 88 85 87 93 97 101 101 97 93 95 99 103 99 89 86 91 92 88 91 98 99 97 98 100 99 100 100 100 101 102 99 94 90 89 90 87 83 78
106 108 107 105 104 104 103 102 101 101 101 102 102 102 102 102 100 98 96 96 97 99 101 103 104 104 104 104 104 104 102 101 101 102 101 99 97 93 88 84 82 85 91 92 90 90 92 95 96 95 94 96 99 101 101 100 97 95 98 104 102 98 98 100 98 95 96 99 101 100 100 99 99 100 101 100 100 102 104 101 94 90 87 82 77
105 106 104 102 103 105 105 105 105 104 104 104 104 104 103 102 100 98 97 97 98 98 99 100 99 99 99 98 98 98 99 100 100 102 104 104 102 99 96 95 95 96 100 100 97 96 97 98 101 101 100 101 103 102 101 101 101 99 97 100 103 104 101 98 100 101 99 99 101 101 99 99 99 99 99 100 100 100 103 102 95 91 90 87 83
99 97 95 97 100 100 101 102 103 102 101 102 102 102 102 102 102 102 101 101 100 100 99 98 96 94 91 90 92 93 96 99 101 103 104 103 101 99 99 102 103 102 102 103 102 101 101 100 100 101 101 102 102 101 100 100 102 103 102 99 100 102 103 100 99 100 100 100 100 100 99 98 99 99 99 99 100 100 100 99 95 94 95 95 94
95 92 91 94 97 99 99 99 96 94 93 92 90 89 90 88 85 82 80 78 77 75 73 69 67 65 64 63 65 68 72 76 81 86 89 90 91 94 96 99 103 105 105 103 101 99 99 99 100 101 101 101 101 102 100 97 98 102 103 102 101 101 102 103 101 100 101 100 100 100 100 100 99 100 100 100 100 100 100 100 99 98 97 97 98
93 85 79 79 81 83 83 80 77 74 70 67 64 63 62 60 57 56 55 54 53 52 51 49 47 45 44 43 42 43 44 45 47 50 52 55 58 63 67 73 80 89 96 101 103 103 102 103 102 101 101 100 99 99 99 97 97 101 102 102 101 103 105 105 104 102 101 100 100 100 100 100 100 100 101 100 100 100 100 100 101 100 100 101 101
75 65 61 61 62 63 63 61 60 60 59 57 57 57 58 60 61 63 65 66 67 67 64 61 56 52 50 50 49 48 48 49 49 49 49 50 53 55 57 59 61 63 69 75 81 85 89 93 96 98 100 102 102 101 100 99 98 99 101 102 102 104 105 105 104 105 104 102 101 101 100 100 100 100 100 100 100 101 101 101 101 100 101 102 102
69 69 69 68 66 67 68 67 65 66 67 69 71 73 76 79 80 84 88 91 93 92 88 81 75 69 64 60 58 57 59 61 62 62 63 64 66 69 72 74 75 75 76 76 77 77 73 68 66 69 73 79 86 93 98 101 102 100 98 100 103 105 106 105 102 101 101 102 101 99 98 99 100 100 101 101 100 100 99 100 101 101 100 101 102
89 87 80 76 74 73 72 73 74 77 81 85 91 94 95 95 98 100 102 101 99 96 90 86 84 83 80 76 72 70 71 73 72 71 72 70 68 70 77 80 79 81 87 95 98 98 93 84 70 56 49 48 51 58 67 77 87 96 100 102 102 102 103 104 102 99 98 99 100 98 97 96 95 95 97 99 100 100 100 99 99 99 99 99 100
98 88 80 76 73 72 74 78 82 88 94 99 103 103 102 101 102 101 98 97 96 93 89 87 87 87 84 78 77 83 89 90 87 83 79 74 70 71 76 80 76 70 76 93 105 103 101 103 95 71 51 46 46 44 44 45 50 61 77 91 101 105 103 102 101 99 98 98 99 100 102 101 97 93 91 92 93 95 98 100 101 101 101 100 99
88 77 72 69 68 71 80 87 93 99 104 104 102 101 102 102 101 100 99 99 98 98 99 101 100 98 93 85 79 81 87 89 83 76 71 69 71 72 75 83 87 75 64 73 93 102 101 100 98 82 59 49 52 55 54 50 44 41 45 55 70 84 93 97 100 102 103 103 103 103 104 105 103 101 100 98 92 86 84 87 90 93 96 98 99
76 69 63 60 65 78 90 96 101 105 106 103 99 99 102 102 100 99 99 100 101 99 97 96 96 96 97 97 91 84 81 76 67 57 55 62 75 82 83 90 102 93 68 54 64 86 99 98 93 86 71 57 58 65 68 69 66 61 55 50 49 53 59 65 71 77 81 86 91 95 98 100 101 102 104 104 99 91 83 77 74 73 74 78 81
68 63 58 58 69 86 97 102 104 104 104 105 105 105 104 101 99 99 99 100 102 96 85 81 87 93 96 98 98 94 87 73 57 48 51 65 83 94 94 95 101 96 79 62 53 58 72 84 90 90 81 69 68 75 82 88 90 87 83 79 74 69 65 61 59 57 56 57 61 67 71 76 81 85 87 87 87 86 84 79 72 66 60 56 55
60 57 60 70 84 95 100 104 105 102 101 102 103 104 106 104 101 100 99 101 103 100 91 86 89 97 102 103 103 100 90 71 54 51 61 76 93 102 100 99 102 94 83 79 74 61 56 64 73 76 74 73 78 85 90 94 97 97 97 98 98 96 94 91 88 83 78 74 71 66 62 60 59 61 63 64 66 67 69 70 69 66 61 56 51
56 63 73 85 93 97 100 102 103 101 99 99 99 102 106 107 105 101 98 98 98 97 97 95 89 86 92 99 103 101 91 75 64 66 76 88 99 103 100 100 105 101 88 81 79 73 67 66 69 71 75 80 82 80 79 79 83 88 93 97 100 102 102 103 104 101 99 98 92 82 72 63 55 49 46 45 47 48 50 52 54 55 55 54 52
71 79 86 91 95 99 101 101 99 100 101 102 103 105 105 105 106 104 99 94 88 79 78 82 80 76 80 88 96 101 99 91 84 84 89 95 100 103 101 99 103 105 100 91 81 72 66 66 68 72 79 84 80 75 77 83 87 92 95 96 98 100 100 101 101 101 100 99 95 87 80 72 65 57 49 42 38 36 36 37 39 41 43 44 45
85 85 86 91 96 100 101 100 100 101 103 103 100 98 94 93 97 98 92 85 81 76 72 74 73 75 82 87 86 88 95 97 94 92 94 98 100 99 97 98 99 101 103 103 97 86 78 76 77 76 81 90 92 91 92 96 98 100 102 101 100 101 99 98 99 101 102 101 99 96 92 86 79 71 61 52 45 39 35 32 30 30 31 32 34
85 85 85 87 91 95 97 99 100 100 100 100 98 93 88 84 83 84 80 74 71 69 70 73 70 70 80 91 88 82 84 91 95 96 98 101 100 94 91 96 101 101 100 102 101 98 93 89 88 88 93 98 101 100 100 101 102 104 104 102 103 104 102 98 98 99 99 98 99 100 99 94 89 83 78 72 66 60 52 44 36 31 29 27 27
74 79 81 80 83 89 93 96 99 99 98 98 97 91 85 79 72 70 71 71 69 65 64 69 72 68 68 78 89 94 94 97 100 100 101 103 102 96 94 98 102 102 102 102 102 103 99 87 77 79 90 97 99 100 100 100 102 105 105 103 103 103 100 97 96 96 96 96 98 101 99 95 91 89 85 81 76 71 64 55 45 38 32 28 26
59 67 73 75 77 82 88 93 94 94 94 95 93 87 80 73 65 60 57 57 62 68 68 68 73 75 67 60 69 87 99 104 103 101 101 104 104 101 100 100 100 100 100 100 100 102 102 92 74 67 78 93 99 100 101 100 100 100 98 98 99 99 98 98 99 100 101 100 99 99 97 96 97 98 95 91 88 86 82 77 71 65 61 59 58
47 52 61 69 71 72 78 82 83 85 88 87 83 77 71 65 60 54 50 48 51 66 80 81 78 81 76 58 50 64 86 101 106 102 100 102 102 101 101 100 100 101 101 101 100 100 101 96 82 70 77 93 100 100 100 101 99 93 90 92 96 98 99 100 100 101 101 101 101 101 101 101 103 104 103 101 101 99 98 97 96 95 95 94 96
38 41 47 56 62 65 68 68 69 74 78 77 74 70 63 60 56 49 44 44 42 53 80 96 91 85 82 67 48 44 60 84 100 103 101 101 101 101 102 101 100 101 101 100 100 102 103 102 95 86 87 96 100 100 100 100 98 95 94 97 100 102 100 99 99 100 100 100 100 100 100 100 101 101 100 101 101 101 100 100 100 100 101 100 101
27 32 38 42 47 52 57 60 61 63 64 65 67 62 54 53 52 42 36 39 38 46 76 99 98 89 84 70 49 39 43 60 84 100 103 100 97 95 97 100 101 103 105 104 102 101 102 102 101 100 100 99 99 100 100 100 101 103 103 102 102 101 101 100 99 100 100 100 100 100 100 100 100 100 100 100 100 100 100 101 101 101 102 102 102
32 25 27 32 37 41 44 49 52 55 56 56 54 50 46 44 40 34 31 31 33 50 83 101 96 91 87 69 48 38 37 46 70 91 91 82 76 73 73 75 78 82 88 96 101 104 104 102 99 99 99 100 100 101 100 100 100 101 101 101 101 101 100 100 100 100 100 100 100 100 100 100 100 100 100 100 100 100 100 101 102 102 102 102 102
65 45 30 25 27 30 34 38 39 40 44 43 40 38 38 34 30 29 27 28 40 69 97 100 90 91 94 75 49 38 37 43 64 81 75 60 55 55 50 47 48 50 53 63 74 85 95 101 103 101 99 99 100 99 99 100 101 100 100 101 101 101 101 100 100 101 101 101 101 101 101 101 101 101 100 100 100 101 101 101 101 101 100 99 97
93 82 65 49 36 27 25 27 28 29 32 33 32 31 28 24 26 27 24 36 66 94 103 97 93 97 96 76 50 38 37 41 52 63 59 48 45 47 44 41 39 38 36 38 43 51 62 74 83 88 91 94 97 99 100 100 101 100 100 100 100 100 101 100 101 102 102 102 101 101 101 102 103 102 102 102 101 101 101 100 98 96 93 91 88
100 99 95 87 75 59 44 33 27 26 24 22 23 25 22 23 27 27 32 57 91 104 99 98 102 101 92 74 51 36 35 39 42 47 51 49 45 45 45 43 41 38 37 35 34 37 43 49 56 63 69 75 81 88 93 97 100 102 102 102 101 101 100 100 100 101 101 101 100 100 101 101 101 101 100 100 99 98 97 96 94 92 90 89 88
98 100 101 99 97 91 81 70 61 53 46 42 38 31 28 29 30 31 47 76 97 99 98 104 106 99 89 77 57 39 34 38 40 43 46 47 46 46 49 48 44 39 35 32 31 33 38 44 51 55 59 63 70 76 82 87 92 95 97 98 98 98 98 98 98 97 97 97 97 97 98 98 98 99 100 100 101 100 97 94 92 89 87 85 82
93 96 98 99 100 100 97 96 95 88 84 82 74 58 46 40 35 40 62 84 92 95 101 106 105 99 91 82 70 55 41 34 35 39 42 43 43 45 47 45 39 33 30 28 28 30 35 43 53 60 64 69 75 79 83 86 89 92 96 98 99 98 98 97 96 96 96 97 99 100 102 103 104 104 103 99 94 87 81 74 69 63 58 53 48
93 95 96 98 102 104 104 104 104 100 100 101 95 84 70 51 39 50 73 84 85 93 103 104 104 103 95 84 78 69 51 36 31 33 34 36 37 38 38 36 32 27 24 23 26 35 45 56 68 78 84 88 91 92 93 96 98 100 101 102 103 103 104 104 105 104 102 101 100 97 93 89 84 77 70 62 55 48 42 37 32 28 24 21 18
84 89 95 98 99 102 107 107 104 103 104 102 98 93 79 55 44 62 82 84 83 93 102 101 103 107 102 88 77 66 50 36 28 25 26 29 30 29 27 24 21 21 24 31 45 63 78 86 92 97 99 101 102 102 101 101 102 103 104 105 105 103 101 97 92 85 78 72 67 62 56 50 44 39 34 30 26 23 20 17 15 14 13 12 11
72 71 78 88 94 98 103 107 106 106 105 99 94 88 71 52 55 75 87 85 87 95 99 99 102 105 104 99 90 78 66 51 36 26 22 22 21 22 24 26 31 42 56 70 82 92 97 98 99 101 102 102 103 104 103 102 101 98 94 89 82 75 68 61 55 49 45 41 38 35 31 28 24 21 19 17 15 13 12 12 12 12 12 12 13
81 69 61 66 77 87 93 99 106 109 103 94 89 78 59 53 69 87 90 90 96 99 98 100 103 101 101 105 106 102 99 92 81 72 65 60 59 63 67 71 79 88 94 98 98 97 96 96 97 98 100 100 98 93 87 81 76 69 62 56 51 46 42 40 37 34 32 29 26 23 20 18 16 14 13 12 12 12 12 13 13 14 15 16 16
89 84 70 58 60 71 82 90 100 107 103 93 80 63 50 59 83 94 92 95 103 104 101 104 105 100 99 102 103 105 107 107 104 103 101 99 100 102 101 100 101 99 96 94 92 89 86 85 82 78 75 72 67 60 55 51 51 49 46 44 42 39 36 33 29 26 23 21 19 17 16 15 14 13 12 12 13 13 13 14 15 15 17 17 18
87 91 86 71 59 61 72 82 90 98 102 93 71 51 51 71 92 97 96 101 107 107 105 108 108 105 102 100 99 101 104 103 101 100 97 94 93 92 89 86 82 76 70 68 66 62 58 56 53 51 50 49 50 50 51 51 51 48 43 39 35 32 29 27 24 22 20 19 18 17 16 15 14 13 13 14 14 14 15 16 16 17 17 18 18
86 88 92 88 73 62 66 75 80 87 96 91 65 45 55 82 99 101 103 106 107 106 105 106 107 109 107 99 90 86 83 79 76 73 69 64 62 60 58 56 53 49 47 47 47 48 50 52 53 55 56 57 58 58 55 51 46 40 36 34 32 30 27 25 23 21 20 19 18 17 17 16 16 15 15 15 15 15 16 16 16 17 17 18 18
92 88 91 96 89 73 67 73 77 79 86 85 63 46 61 91 106 105 103 102 102 103 105 102 100 100 97 85 73 64 58 54 51 50 48 48 48 49 50 51 51 51 53 55 58 60 62 63 64 64 62 58 55 50 45 41 38 35 34 33 31 28 26 25 23 22 21 20 20 19 19 18 17 17 17 17 17 17 17 18 18 19 19 20 21
Wind_Speed
34 35 36 37 37 37 36 35 36 37 39 40 39 39 39 39 39 38 37 39 39 37 36 37 37 38 38 39 40 41 40 39 39 38 35 35 36 39 42 46 49 53 58 64 70 78 85 91 96 101 103 104 104 105 105 105 105 106 106 106 106 106 105 106 105 101 98 96 94 91 89 88 86 84 84 85 86 82 78 76 78 79 79 78 78
37 37 37 38 38 37 36 35 35 35 36 36 36 37 38 39 39 39 39 38 36 34 36 36 35 35 35 36 38 39 39 38 38 36 34 34 34 36 39 43 46 48 52 56 61 66 73 80 87 92 97 100 101 102 103 104 105 105 106 106 106 106 105 106 106 104 101 99 97 94 92 91 89 86 84 84 87 87 84 80 79 79 79 78 77
37 37 37 37 38 38 37 36 36 36 35 34 34 34 36 37 38 39 39 37 33 34 35 34 32 31 32 33 35 36 36 36 36 35 33 33 34 35 37 40 43 46 48 50 53 57 62 69 75 81 88 93 95 97 99 101 103 104 104 104 105 105 105 105 105 103 102 100 98 97 95 94 92 90 87 85 86 88 89 86 82 80 80 80 79
36 37 37 38 38 39 38 37 37 36 34 35 35 34 33 34 36 38 38 36 33 34 34 31 29 29 30 31 33 34 34 35 35 34 34 33 34 34 35 37 40 43 46 48 50 52 54 58 63 69 77 83 88 91 94 97 99 101 103 103 103 103 104 105 105 104 102 100 98 96 96 95 93 93 92 90 87 87 89 90 88 84 81 80 81
35 36 36 37 38 38 38 38 37 35 34 35 36 35 32 31 34 37 37 34 33 32 30 27 26 28 29 29 31 33 34 34 33 33 33 33 33 32 33 36 38 40 43 45 47 47 49 51 55 60 66 73 79 83 88 92 95 97 99 101 102 102 102 103 104 104 104 103 100 96 94 94 93 92 92 93 91 88 88 90 91 90 86 82 81
36 35 35 35 35 35 36 37 37 35 34 34 35 35 33 31 31 34 34 33 31 29 27 25 26 28 28 28 30 31 32 32 31 31 32 32 32 32 33 35 37 38 41 42 43 44 44 46 50 55 59 64 70 75 80 85 90 93 95 98 99 100 102 102 102 103 104 105 104 100 96 93 91 90 90 91 92 91 89 89 90 90 89 86 83
34 34 33 33 33 34 34 34 35 35 34 33 32 33 33 31 29 29 31 31 29 28 27 26 26 27 28 29 29 31 31 31 30 31 31 32 32 32 33 33 34 36 38 40 41 41 41 43 46 50 54 59 63 68 73 77 82 86 90 93 95 97 99 101 101 101 102 104 104 103 101 97 93 88 86 87 90 91 90 90 89 88 87 86 86
30 31 32 33 33 34 34 34 34 34 34 32 31 29 29 29 28 27 27 27 28 28 27 26 28 29 29 29 30 30 30 30 30 31 31 31 31 31 31 30 31 33 35 36 37 38 38 40 42 44 48 53 58 63 68 71 75 79 82 86 90 92 95 98 100 100 100 101 102 103 102 101 100 95 89 85 84 85 86 88 90 89 88 87 87
29 31 32 33 33 32 31 30 29 30 30 29 28 27 26 27 28 26 24 25 27 28 28 28 29 29 28 28 28 28 29 29 30 31 31 31 30 30 30 29 30 31 32 33 33 34 35 36 38 39 42 46 52 58 64 68 70 73 76 80 83 86 89 93 96 98 98 98 100 101 101 100 101 101 98 92 87 84 84 86 88 90 90 90 89
29 30 31 32 31 27 24 23 22 22 23 23 23 23 23 25 26 23 22 23 25 26 26 27 27 26 26 25 26 27 28 28 29 31 31 31 31 30 30 29 29 30 30 30 30 31 32 33 34 36 36 39 43 49 56 62 66 69 72 75 77 78 82 87 90 92 94 96 96 97 98 98 98 99 100 99 96 93 91 89 88 88 90 90 90
28 28 29 29 27 23 19 16 13 12 13 14 16 18 19 20 20 19 19 20 21 22 23 23 24 24 24 25 26 27 27 27 29 30 31 32 32 31 30 29 29 29 28 29 28 28 29 30 31 32 33 33 36 40 45 52 58 64 70 74 75 73 72 76 82 85 86 89 91 92 93 93 93 93 95 97 99 99 98 96 94 92 90 89 89
26 25 25 25 22 18 14 11 8 4 3 6 9 11 12 14 15 15 16 17 18 20 21 21 22 23 23 24 25 26 26 26 27 29 31 32 31 30 29 29 28 28 28 28 28 28 28 28 29 30 30 31 32 34 37 41 47 55 62 70 76 75 68 64 68 76 81 82 83 84 85 86 86 86 87 89 93 96 97 97 96 94 92 90 88
23 22 21 21 19 16 14 12 9 7 4 2 3 5 8 10 11 13 14 15 17 18 19 20 21 22 22 23 24 24 25 26 27 28 30 32 32 31 30 29 29 29 29 29 28 28 28 28 28 28 28 29 30 32 34 37 41 46 52 60 68 74 72 65 60 63 70 76 77 76 76 77 78 79 80 82 85 89 92 93 92 90 89 88 87
21 21 20 19 18 17 15 14 12 10 8 5 4 4 5 7 9 10 12 14 15 16 18 19 19 20 21 21 22 23 24 25 26 27 29 31 32 31 31 30 30 30 30 30 30 29 29 29 28 27 27 28 29 30 32 36 39 42 46 51 57 63 68 68 64 60 62 67 71 70 69 70 72 73 75 78 81 84 88 89 89 87 85 85 85
20 20 19 18 18 17 16 14 13 11 8 6 4 2 2 4 6 8 9 11 12 13 14 15 16 17 18 19 20 22 23 24 25 26 28 30 31 31 31 31 31 32 32 32 32 31 31 30 29 28 28 28 28 29 30 33 37 40 44 47 50 54 58 61 64 63 62 62 65 67 68 69 70 72 74 76 78 80 83 86 87 86 85 85 85
19 19 18 18 17 17 15 14 13 11 10 8 6 4 2 0 3 4 6 8 9 10 11 13 14 15 17 18 20 21 22 23 24 25 26 28 29 30 30 31 32 33 33 34 34 33 32 31 30 30 29 29 29 29 29 31 33 37 41 45 49 52 54 57 60 62 62 62 64 67 69 71 72 73 74 75 77 79 81 82 84 84 84 84 84
18 17 17 17 16 16 15 14 13 12 10 9 7 6 4 2 1 2 4 5 7 8 10 11 12 14 15 16 17 18 19 19 21 22 23 24 26 27 28 28 30 32 33 34 35 33 31 31 31 31 31 31 31 31 31 32 32 34 38 43 47 50 53 56 58 61 62 64 65 67 69 71 73 74 75 76 76 78 80 80 81 81 81 81 80
17 17 17 17 16 15 15 14 13 12 11 10 9 8 6 5 4 2 1 2 3 5 6 7 8 9 11 12 13 13 14 15 16 17 18 20 22 23 24 25 26 28 31 34 34 34 32 31 32 32 32 33 33 33 33 33 34 35 36 38 42 46 51 55 58 60 63 66 67 69 70 71 73 75 76 77 77 77 78 79 80 81 81 79 78
17 17 17 16 15 15 14 14 13 13 12 11 10 9 8 7 6 5 4 3 2 2 2 3 4 5 6 7 9 10 11 12 13 14 15 16 17 18 20 21 22 24 27 30 32 33 33 33 33 34 34 35 36 37 37 36 36 37 37 37 37 40 45 51 56 59 63 65 68 71 72 74 75 76 77 78 78 78 77 78 80 81 81 80 78
17 17 17 16 15 14 13 13 14 14 13 12 12 11 10 10 10 9 9 8 7 6 5 4 3 3 2 2 3 4 5 6 7 8 9 10 11 13 14 16 18 20 23 26 29 31 33 34 35 36 37 38 39 39 40 40 40 40 40 39 37 38 42 46 50 54 59 62 66 69 72 74 76 77 78 78 79 78 78 78 78 78 79 79 78
17 17 17 16 15 15 14 15 16 16 16 16 16 16 16 15 15 14 13 12 11 10 8 7 5 4 3 3 2 1 1 2 2 3 3 4 5 6 8 9 12 14 17 20 23 26 29 32 34 36 38 39 40 41 42 43 43 43 43 41 41 43 45 46 47 49 53 57 61 65 67 70 73 75 77 79 79 79 79 78 77 77 77 77 76
18 18 17 16 16 16 17 18 18 19 19 19 18 18 17 16 15 14 14 12 11 10 10 9 8 7 6 5 4 3 2 2 3 3 3 3 4 5 6 8 9 11 13 15 17 20 23 25 28 31 34 36 39 42 44 45 46 46 45 45 45 47 49 49 49 49 50 52 55 59 62 65 67 70 72 75 77 79 80 80 79 79 79 77 76
18 18 17 17 18 18 19 19 19 19 18 18 18 17 16 15 14 13 13 12 12 12 12 11 10 8 7 6 6 5 5 4 4 4 4 4 5 6 7 9 11 13 15 17 18 20 22 23 24 25 26 28 31 35 39 42 45 47 47 47 48 49 51 51 51 50 50 50 51 53 55 58 61 64 67 70 73 75 78 79 80 82 83 83 83
18 18 17 18 18 19 18 18 18 18 18 18 17 16 15 14 13 13 13 14 14 14 14 14 12 10 8 6 5 5 5 5 5 5 5 6 6 7 9 10 12 13 15 18 20 22 24 25 26 25 23 22 23 26 30 34 38 43 46 48 49 50 52 51 51 51 51 51 51 51 52 54 56 58 61 64 68 71 74 76 78 79 81 83 84
18 17 17 18 18 18 17 17 17 17 17 16 15 14 14 13 13 13 14 15 14 13 13 13 13 11 10 8 6 4 5 5 4 5 6 7 8 9 10 11 12 12 14 17 20 23 25 26 27 26 23 19 17 18 20 23 27 32 37 42 46 49 50 50 50 50 50 50 50 51 52 53 54 55 57 59 62 65 69 72 75 77 78 79 80
18 17 16 17 17 17 17 16 16 15 15 15 15 14 14 13 13 14 15 14 13 12 12 13 13 12 12 10 7 4 3 2 2 3 6 8 9 9 10 11 11 11 12 13 15 17 21 24 26 26 23 19 17 16 15 16 18 21 24 28 33 37 41 43 45 46 47 48 49 50 51 53 54 55 57 58 59 60 62 65 68 72 74 77 78
17 15 16 16 17 17 16 15 15 15 15 16 16 16 15 14 15 15 15 14 13 14 15 16 16 15 13 11 8 5 3 2 1 4 6 9 10 9 8 9 10 10 11 11 10 9 13 18 22 22 21 19 18 17 17 17 17 17 18 19 21 24 28 32 35 38 41 44 46 48 49 51 53 55 56 57 57 58 59 60 61 63 66 69 72
15 15 16 17 17 16 16 16 16 16 17 17 17 17 16 15 14 13 13 13 13 15 16 16 16 15 14 12 9 7 4 3 2 4 7 8 9 8 8 8 8 8 8 8 8 7 8 11 14 16 16 17 17 18 18 19 19 19 19 19 20 22 25 27 30 33 35 37 40 42 45 48 50 51 53 54 55 57 58 58 59 59 60 61 63
15 16 17 17 17 17 17 17 18 18 17 18 18 18 16 15 13 12 12 11 12 12 14 14 14 14 14 14 12 10 8 5 3 4 6 7 8 8 7 7 7 7 5 4 4 6 6 8 10 11 12 14 14 15 15 15 16 16 17 18 20 22 24 26 28 30 32 35 39 41 43 44 45 47 48 50 52 54 55 56 57 58 58 58 59
17 18 18 18 18 18 18 18 18 17 16 16 16 15 15 15 14 14 15 15 14 14 14 14 13 13 13 13 13 12 10 7 5 5 6 7 8 9 8 7 6 6 5 3 2 3 5 7 9 10 11 12 13 14 15 15 15 16 17 18 20 22 24 26 26 26 28 31 36 39 42 44 44 45 46 47 49 50 51 53 54 55 56 57 57
18 18 18 18 17 18 18 18 17 16 15 14 14 14 14 15 15 16 17 18 18 18 16 14 13 12 11 11 11 10 9 7 7 7 9 9 9 9 8 7 6 6 5 4 3 3 4 5 7 8 10 11 13 14 16 17 18 18 19 20 21 22 23 24 24 24 25 26 28 31 35 38 40 41 41 42 43 44 45 47 48 50 51 53 54
16 16 17 16 17 17 17 17 16 16 15 15 15 16 16 16 16 17 18 18 19 19 18 16 14 12 10 9 8 8 8 8 8 8 9 10 9 9 9 9 8 7 7 6 3 2 3 4 3 4 6 8 9 10 11 12 12 12 13 14 15 17 19 21 23 24 24 24 24 24 26 28 30 31 32 32 33 35 37 39 41 43 45 47 47
13 14 14 14 14 15 15 15 15 16 17 17 17 18 18 19 19 19 19 19 18 18 18 17 15 12 10 9 8 7 7 8 8 8 9 9 9 9 9 9 9 8 8 8 7 4 0 3 3 3 3 3 4 5 6 7 7 7 8 8 10 12 14 16 18 18 18 19 19 19 19 19 20 20 21 23 25 26 28 30 32 34 35 36 37
10 11 12 12 12 12 12 13 13 14 15 16 17 17 17 18 19 20 20 20 20 19 18 17 16 13 11 9 8 8 8 8 8 8 8 8 8 8 8 8 9 9 9 10 10 9 6 4 4 4 3 4 4 5 6 6 6 7 7 8 9 9 9 9 10 10 11 12 13 13 13 13 13 14 14 16 17 19 20 21 23 25 26 28 29
8 8 9 10 10 10 10 11 11 12 13 14 15 16 16 17 18 19 20 20 20 19 18 17 16 13 11 9 7 7 7 8 8 8 7 7 8 8 8 9 9 9 10 10 11 11 10 8 7 7 6 5 6 7 8 8 8 9 10 11 11 11 11 12 12 12 13 13 14 14 15 15 15 15 16 16 17 18 19 20 21 22 23 24 25
7 7 8 8 9 9 9 10 11 11 12 13 14 15 16 16 17 19 21 21 20 18 17 16 15 13 11 9 6 5 6 7 7 7 6 7 7 7 7 8 9 9 10 10 10 10 10 9 8 8 7 7 7 9 9 9 10 10 11 11 11 11 12 12 12 13 13 13 13 14 14 15 15 16 16 17 17 18 19 19 20 20 21 21 22
9 9 9 10 10 10 10 11 11 12 13 14 15 16 16 17 18 20 22 22 20 18 16 14 13 12 10 8 6 3 4 5 6 6 6 6 7 7 7 7 7 8 8 9 9 10 10 10 9 8 8 8 9 10 11 11 10 9 9 9 9 9 10 11 12 13 14 15 15 15 15 16 16 16 17 17 17 18 18 18 18 19 19 20 20
11 11 11 12 12 12 13 13 13 13 14 15 16 17 17 18 20 22 23 22 20 18 15 14 12 11 9 8 7 3 1 3 4 4 5 6 6 6 6 6 6 6 7 7 7 8 8 8 9 9 9 10 10 11 11 11 11 10 9 8 8 8 8 9 10 12 12 13 14 14 15 15 15 15 15 16 16 16 16 16 17 17 17 18 19
14 13 13 14 15 15 16 16 16 16 16 17 18 18 19 21 22 23 23 22 19 17 15 14 13 11 8 7 7 6 2 1 2 3 4 4 4 4 5 6 6 7 7 6 6 6 5 5 6 6 7 8 9 10 10 10 10 10 9 9 8 8 8 8 9 10 10 10 10 11 11 11 11 11 11 11 11 12 12 13 13 14 15 16 18
16 15 15 15 15 16 17 18 19 19 18 19 20 20 21 22 22 22 21 19 18 17 16 15 14 10 6 5 7 8 6 3 3 2 2 2 2 3 4 5 6 6 6 6 6 5 5 4 4 4 5 6 7 8 9 9 9 9 9 9 8 8 8 8 8 8 8 8 8 8 8 8 8 8 8 9 10 10 11 12 13 14 16 17 19
15 16 16 16 16 17 17 18 19 20 20 20 20 21 21 21 20 19 18 17 17 17 17 16 14 8 3 3 7 9 8 7 5 5 4 3 2 1 2 3 4 5 5 5 5 4 4 4 3 2 3 4 5 6 7 8 8 8 8 8 8 8 7 7 7 7 7 7 7 7 7 7 7 8 8 9 9 10 11 12 14 15 16 18 19
16 15 16 17 17 18 18 19 19 20 19 19 19 19 19 18 17 16 15 15 16 17 17 15 12 8 3 0 4 8 10 10 9 8 6 5 4 3 1 1 3 4 5 5 5 3 2 2 1 1 1 1 3 4 5 6 6 7 7 7 7 7 6 6 6 6 6 6 6 6 6 6 6 7 7 8 9 10 11 11 12 13 15 16 17
17 17 16 16 17 18 19 19 20 20 20 19 17 17 16 15 14 13 13 14 15 17 16 15 12 9 5 2 2 5 9 11 11 10 9 8 7 6 5 5 5 6 6 6 6 5 4 3 2 2 2 1 1 1 1 2 3 4 4 4 5 5 5 5 5 5 5 5 4 5 5 5 5 6 7 7 8 8 9 10 11 12 14 15 17
18 18 17 17 17 17 18 18 19 19 19 18 17 15 14 12 10 10 11 13 14 15 15 14 12 10 7 4 1 3 8 11 12 11 11 10 9 9 9 8 8 8 8 8 7 6 5 3 2 2 2 2 2 2 2 3 3 4 4 4 4 4 4 4 4 4 4 4 4 5 5 5 6 7 7 8 8 9 10 11 12 14 15 16 17
20 19 19 18 17 17 17 17 17 17 17 16 15 14 12 9 8 8 10 12 12 13 13 13 11 10 9 7 4 1 4 7 10 12 13 12 11 11 11 11 10 9 8 7 6 4 3 2 2 2 3 3 3 4 4 4 4 4 4 4 4 4 5 5 5 5 5 5 5 6 6 7 7 8 9 9 10 11 12 12 13 13 14 14 14
23 22 21 20 19 18 18 17 16 16 15 15 14 12 9 7 6 7 9 10 10 10 11 10 9 9 9 8 7 5 3 1 3 6 8 8 9 9 8 8 7 6 5 4 3 2 2 2 3 4 4 4 4 4 3 3 3 3 4 4 4 5 5 5 5 5 5 6 6 7 8 8 9 9 10 10 11 11 11 10 10 10 11 12 13
25 25 24 23 21 19 18 17 16 15 15 14 12 9 7 5 5 7 9 9 9 8 8 7 7 7 6 6 6 6 6 6 4 3 1 0 1 2 2 2 2 2 1 1 1 2 2 2 2 3 3 3 2 2 3 3 4 4 4 5 5 5 5 5 5 6 6 7 8 8 8 8 9 9 9 9 9 8 8 9 9 10 11 13 14
24 24 25 25 23 21 18 17 15 15 14 13 10 7 5 4 5 7 8 8 8 7 6 5 5 4 4 4 4 4 5 5 4 4 3 2 1 1 1 1 1 2 2 3 2 2 2 2 2 2 2 2 3 3 3 4 4 4 5 5 5 5 5 6 6 7 7 7 7 7 7 7 7 8 8 8 8 8 9 10 11 12 14 15 17
24 24 24 25 25 22 19 17 15 14 13 12 9 6 4 4 6 7 8 8 7 6 5 4 3 2 2 1 1 2 2 2 2 2 1 1 1 1 1 1 2 2 2 2 1 1 1 1 1 2 2 2 3 4 4 4 5 5 5 6 6 6 6 6 7 7 7 7 7 7 7 7 7 8 8 9 9 10 11 13 14 15 17 19 20
24 24 24 24 25 24 21 18 15 14 13 10 7 5 5 5 6 7 8 8 7 6 5 4 3 3 3 2 1 2 2 2 2 2 2 1 1 1 1 1 2 2 1 1 1 2 2 2 3 3 4 4 4 5 5 6 6 6 6 6 7 7 7 7 7 7 7 7 7 7 8 8 9 9 10 11 12 13 14 16 17 19 20 22 24
22 23 23 23 23 24 22 19 16 13 12 9 6 5 5 6 6 7 7 8 7 6 5 5 4 3 3 3 3 2 2 2 2 2 1 1 1 1 2 2 2 3 3 3 3 4 4 5 5 5 5 6 6 6 6 6 7 7 7 7 7 7 8 8 8 8 8 8 8 9 9 10 11 11 12 13 14 16 17 19 20 22 23 25 26
Wind_Direction
292 291 290 288 285 281 277 270 266 264 262 261 259 257 255 254 254 253 250 248 249 249 248 247 246 247 249 250 252 254 255 254 253 251 248 245 245 243 242 241 241 240 239 238 237 237 236 236 236 235 234 234 234 233 233 233 233 233 233 234 234 235 236 237 239 239 238 238 238 238 238 238 237 235 233 232 230 229 231 236 239 241 243 244 244
295 293 291 289 286 284 280 276 272 268 265 262 259 256 254 252 251 251 251 249 248 248 249 249 247 247 247 248 250 252 254 254 253 251 249 246 246 245 243 242 241 240 240 240 239 239 238 238 237 237 236 235 235 234 234 233 233 233 233 233 234 235 235 237 239 240 239 238 237 237 237 237 238 237 235 234 232 230 228 231 236 239 240 242 244
295 294 292 289 287 284 282 279 275 272 270 267 262 257 253 250 249 250 251 251 247 245 247 249 249 247 246 247 249 251 251 251 252 251 250 249 248 247 246 244 241 240 240 239 239 239 239 239 239 239 238 237 236 236 235 234 234 234 234 233 234 234 235 236 237 239 240 240 239 238 237 238 238 238 237 235 234 232 229 229 232 236 238 240 242
296 294 292 290 287 285 282 279 276 273 271 268 264 260 253 249 247 247 248 249 245 243 245 248 250 249 247 245 247 249 249 249 248 248 247 247 246 246 246 245 243 240 239 239 239 239 239 239 239 239 239 238 238 237 236 236 235 235 235 234 234 234 234 235 236 237 238 238 238 239 239 239 238 238 237 236 234 233 232 230 230 232 235 238 241
299 296 293 290 287 284 282 280 277 273 268 263 261 260 256 249 246 245 246 246 243 243 245 246 248 251 250 246 245 246 247 247 245 244 243 242 242 244 244 244 242 240 239 239 239 239 239 238 238 239 239 238 238 237 237 237 236 236 236 235 235 234 234 234 235 236 236 236 237 237 238 239 239 239 238 237 235 234 233 232 232 232 233 235 238
304 301 297 293 288 284 281 279 277 274 269 263 258 257 256 250 245 245 245 245 243 243 243 242 244 249 252 251 248 246 246 246 244 242 241 240 239 239 240 241 241 240 240 240 240 240 239 239 239 239 239 239 238 237 237 237 236 236 236 236 235 235 235 234 234 235 236 236 236 236 235 236 238 239 239 238 237 235 233 233 233 233 233 234 235
309 306 303 300 295 290 285 280 277 274 270 266 259 254 252 248 244 244 245 245 244 242 241 241 243 246 250 250 249 248 248 247 244 241 239 237 237 237 239 241 242 242 241 241 241 241 240 240 240 240 240 240 239 238 237 236 236 236 236 236 236 235 235 235 234 234 235 236 236 236 235 234 235 236 237 237 237 236 235 234 233 234 235 235 235
316 314 311 307 303 297 291 284 278 273 269 266 260 254 248 244 240 240 241 241 241 242 241 240 242 244 246 247 247 248 249 249 246 242 238 236 236 237 239 240 241 242 242 242 242 241 241 241 242 243 242 241 240 239 237 236 236 235 234 234 235 235 235 235 235 234 235 235 236 236 236 235 234 234 234 235 236 236 236 235 234 234 235 236 236
326 323 319 316 312 306 298 289 281 273 268 262 257 251 244 238 234 234 235 235 237 239 239 239 241 245 247 248 248 249 249 249 247 242 238 236 235 236 236 236 238 240 242 243 243 243 243 244 245 245 245 243 241 239 237 236 235 234 233 232 233 234 234 235 235 235 235 235 236 236 236 236 235 235 235 235 235 235 236 235 234 234 236 237 238
332 329 328 327 324 318 309 298 285 274 265 256 249 244 239 233 231 231 233 235 238 239 239 241 243 247 249 249 248 248 248 247 246 243 238 235 235 235 234 234 235 238 241 243 244 245 245 246 247 248 247 246 243 240 237 235 233 232 231 229 229 231 233 234 235 235 235 235 235 236 236 236 236 236 236 236 237 237 237 237 236 235 236 237 239
337 337 338 339 335 329 322 314 298 277 260 246 240 238 234 229 227 228 232 236 239 240 241 241 242 245 247 246 245 246 247 246 244 242 239 236 236 236 236 236 236 237 239 241 243 245 246 247 248 249 250 248 244 241 239 237 234 232 230 227 225 227 231 234 235 234 234 235 235 236 236 237 237 237 237 237 237 238 239 239 240 239 238 238 239
343 345 349 351 349 346 344 346 341 321 262 233 230 228 224 221 221 225 231 235 237 239 240 241 242 244 245 245 245 246 246 246 244 242 239 237 237 238 238 239 238 238 238 239 240 242 245 247 247 249 250 249 245 241 239 238 236 233 230 227 225 224 225 230 235 235 233 232 233 234 235 237 237 237 237 237 238 238 238 239 241 241 241 240 240
350 354 359 3 6 9 15 24 33 44 63 110 175 196 206 213 220 226 231 234 238 240 242 242 243 245 245 244 245 246 248 247 245 243 241 239 237 236 237 238 239 238 238 239 239 241 243 246 247 248 248 247 245 242 238 236 236 235 232 229 227 226 225 225 229 234 234 232 231 231 233 235 236 237 237 236 236 237 237 238 239 240 240 240 240
359 3 7 12 19 25 30 37 46 56 67 84 114 163 196 213 225 233 237 240 243 246 247 247 247 248 248 248 248 249 250 250 249 246 244 242 240 238 237 237 238 238 239 239 239 240 241 244 245 246 246 246 245 243 239 236 235 234 233 231 229 228 228 227 226 229 232 232 230 229 229 231 233 234 235 235 235 235 236 236 237 239 239 239 239
8 11 13 17 24 30 35 40 46 52 59 66 79 116 191 222 234 242 246 249 252 252 252 252 251 251 251 252 253 254 254 254 253 251 248 246 244 242 240 238 238 238 239 239 239 238 239 241 243 243 243 244 244 243 241 239 237 235 234 233 232 229 229 229 229 228 229 229 229 227 227 227 229 230 232 232 233 234 234 235 236 238 238 239 239
14 16 19 22 27 31 35 40 45 49 53 55 58 63 71 229 245 250 253 255 255 254 253 253 252 252 253 254 254 254 254 253 252 251 249 248 248 246 244 242 240 240 240 241 241 240 240 241 241 242 242 242 242 242 241 240 239 237 234 233 232 232 230 229 229 229 229 229 228 227 226 226 226 227 228 230 231 232 233 234 235 237 239 240 240
17 18 20 25 28 31 35 40 44 48 51 53 53 52 49 38 354 274 262 259 256 255 255 255 255 254 252 251 250 249 249 249 248 246 245 245 246 247 247 245 244 243 242 243 245 244 243 243 242 242 242 241 240 239 239 239 239 238 237 234 231 231 231 230 229 229 229 229 229 228 227 226 226 226 227 227 228 230 231 233 234 236 238 239 240
21 20 23 26 29 33 37 40 44 48 52 55 57 56 55 50 43 30 344 298 281 276 273 270 269 267 264 259 255 250 246 245 244 243 242 242 243 244 245 244 243 242 241 241 243 245 245 244 244 244 243 242 241 239 238 237 237 236 237 236 233 231 230 230 230 230 229 230 230 230 229 228 227 227 226 226 227 228 229 231 233 234 236 237 238
21 22 25 27 29 34 38 41 44 46 47 48 49 49 49 48 48 48 46 38 23 357 325 300 290 283 279 274 266 260 253 248 246 244 243 244 244 244 244 242 241 241 239 238 238 240 241 241 241 241 240 240 240 239 238 237 236 235 234 234 234 232 230 230 229 229 229 229 230 230 229 229 228 227 227 227 226 226 226 227 228 230 232 234 235
20 25 29 29 29 32 37 43 46 47 48 50 52 57 61 65 68 69 68 64 60 54 47 36 21 4 337 312 286 271 263 256 251 247 246 246 245 245 245 245 243 241 240 238 236 236 237 238 239 239 239 239 239 239 239 238 237 236 234 233 231 230 231 230 229 229 229 229 229 229 229 229 229 229 228 228 228 227 226 226 226 226 227 229 231
29 35 38 38 39 42 46 53 60 64 66 67 68 69 69 68 66 64 60 54 48 40 33 24 16 10 5 358 350 335 311 283 267 256 246 238 238 241 242 242 243 243 241 240 239 238 238 238 239 239 240 240 240 239 238 239 238 237 236 234 231 228 229 230 230 230 229 229 230 230 230 230 230 230 230 229 229 229 229 228 228 228 228 228 228
40 40 42 45 50 55 59 63 67 69 69 68 66 64 61 58 55 51 44 37 28 19 10 1 354 344 334 327 321 314 302 282 267 259 250 240 238 244 249 250 249 248 246 244 241 240 239 239 240 240 240 240 240 239 238 237 237 236 235 234 232 231 230 230 230 231 231 231 231 232 232 232 232 232 231 231 230 230 231 231 231 231 232 233 232
42 40 44 51 57 60 62 62 61 61 61 60 58 55 52 48 43 38 32 25 17 10 4 0 356 344 328 314 302 295 292 285 274 264 261 263 263 263 267 268 266 261 256 252 247 244 241 240 240 242 243 243 243 243 242 240 238 236 234 232 231 232 232 232 232 232 232 232 232 232 233 234 234 234 234 234 232 231 231 231 231 232 233 235 236
41 44 50 56 59 58 57 56 55 54 53 51 48 45 40 36 34 33 31 25 18 9 2 359 358 353 340 320 295 278 270 268 267 264 263 266 270 273 274 275 275 273 270 265 259 252 247 243 242 244 247 250 250 248 247 245 242 239 236 233 231 232 233 233 234 234 234 234 233 233 233 234 234 235 235 236 236 235 234 233 232 232 233 234 235
43 49 55 58 57 55 53 53 52 50 47 44 40 36 32 31 34 36 34 26 14 4 2 3 3 0 354 343 326 296 270 263 257 253 258 267 275 279 280 279 278 278 278 274 266 255 246 242 242 244 248 252 252 251 249 249 247 244 240 237 235 234 235 235 235 236 236 236 236 235 234 234 234 234 234 235 235 236 236 236 235 235 235 235 235
46 52 55 54 52 52 52 50 48 45 41 38 36 34 33 36 37 36 31 21 8 5 15 22 21 17 12 7 5 356 325 308 268 245 261 281 289 290 289 289 288 283 282 284 276 259 244 237 237 240 242 245 246 246 246 246 246 243 239 237 235 234 236 236 237 237 237 237 236 235 235 235 235 234 234 234 234 234 235 236 236 236 236 237 237
49 51 49 47 48 49 48 45 42 38 34 32 31 33 35 36 34 29 22 13 7 12 23 29 28 25 19 15 16 18 17 20 287 274 290 303 308 306 300 296 294 287 281 283 284 266 243 234 233 234 235 238 242 244 245 244 242 240 235 230 226 225 228 230 232 233 233 234 234 234 234 234 235 235 235 235 235 235 235 235 236 236 236 236 237
49 47 46 46 48 48 46 43 40 36 32 31 33 36 37 36 32 24 14 7 9 16 23 26 28 27 21 17 18 18 18 18 329 310 315 316 316 316 306 295 292 293 289 282 275 263 243 231 228 226 227 233 239 241 242 241 240 238 235 232 229 227 227 228 230 232 233 233 234 234 235 235 235 236 236 236 236 236 235 235 235 235 236 236 236
47 45 45 46 47 48 47 43 39 34 30 28 30 32 33 34 32 27 20 16 16 21 24 24 27 30 27 24 25 31 37 37 5 333 328 325 328 332 324 306 296 299 307 299 268 249 232 220 216 216 220 225 228 227 225 225 224 225 227 229 230 230 231 232 233 235 236 236 236 236 237 237 238 238 238 238 237 236 236 235 235 235 235 235 235
45 44 44 44 45 45 43 41 38 34 29 25 25 27 30 33 33 29 28 28 26 27 27 24 24 29 30 27 27 31 37 40 23 359 354 353 350 348 344 333 319 310 309 300 255 229 219 213 213 217 220 221 219 217 217 219 223 227 232 235 235 234 235 235 235 236 237 237 237 237 237 237 238 239 239 239 239 238 237 236 236 235 235 235 235
42 42 43 43 42 40 39 38 36 33 30 28 28 29 32 35 34 31 29 29 28 27 26 22 21 22 23 26 33 36 37 36 29 17 13 15 14 10 5 3 357 346 336 319 277 240 234 236 235 233 231 231 232 231 232 235 239 242 246 246 243 239 237 237 236 237 238 238 236 235 235 235 236 237 238 239 239 239 238 237 236 236 235 235 234
38 38 39 39 38 36 35 35 35 34 33 32 31 30 30 32 32 30 27 24 22 22 22 20 19 18 15 13 24 36 38 36 34 30 28 32 35 34 29 27 26 21 12 4 346 270 237 236 239 238 237 237 239 238 235 235 235 237 239 239 238 237 236 236 235 235 236 235 232 229 230 231 231 232 234 235 235 235 234 233 233 232 232 232 232
30 31 32 33 34 32 30 29 30 31 29 27 25 25 25 27 27 26 23 19 16 15 15 14 12 11 9 4 2 9 20 27 31 36 40 43 45 44 41 38 36 33 29 28 27 22 220 193 191 197 206 210 216 219 215 209 206 207 210 213 220 225 227 227 227 226 224 222 220 218 219 219 219 221 223 224 224 222 221 221 220 221 221 222 223
17 19 21 23 23 21 20 21 23 25 24 20 17 16 17 19 19 17 15 13 10 7 6 7 5 1 360 359 358 357 359 10 22 30 35 38 40 40 40 39 37 36 36 37 39 41 55 97 137 149 143 139 147 159 168 171 171 171 169 167 167 169 168 168 169 169 170 172 173 174 175 176 180 185 189 192 193 195 196 197 198 198 199 200 201
358 359 1 5 6 5 4 5 9 13 14 11 8 7 8 8 8 7 6 6 4 0 358 357 356 353 346 344 352 359 359 6 21 30 32 33 31 29 32 35 36 40 45 47 46 47 54 74 102 120 123 114 118 131 139 143 143 142 142 140 138 135 133 132 132 133 136 139 142 146 149 153 158 163 165 167 170 173 176 179 180 182 184 187 190
331 333 335 337 340 343 346 348 350 352 353 352 351 353 355 356 356 355 355 355 356 356 354 351 349 345 335 324 331 356 6 11 21 31 39 42 36 29 30 35 37 40 50 58 60 58 58 65 84 108 119 115 113 119 126 132 141 147 149 148 144 138 134 133 133 135 137 141 145 151 156 161 167 171 172 173 175 177 178 180 182 184 187 191 195
311 311 313 315 317 320 324 329 332 333 334 336 338 340 342 344 344 344 345 347 348 350 351 349 345 339 324 304 298 329 12 17 21 33 46 51 43 32 32 39 43 44 49 57 64 68 69 69 74 86 101 110 116 120 123 127 136 146 151 152 151 147 144 142 141 141 142 145 150 154 159 163 167 170 172 174 175 176 178 180 183 186 189 193 198
316 307 303 303 305 307 309 311 314 317 320 323 327 330 332 333 334 336 340 342 342 344 348 348 343 336 320 291 270 264 358 22 27 46 59 58 49 41 41 46 47 47 50 53 58 64 71 75 75 77 83 91 101 110 118 124 128 134 138 140 140 138 139 141 140 139 139 142 146 149 153 156 158 161 164 166 169 172 177 181 186 191 196 201 206
329 321 310 303 301 300 301 303 304 307 310 314 318 322 324 325 329 334 337 339 340 342 345 343 337 330 315 281 250 228 200 89 67 77 76 65 54 51 54 55 51 48 48 48 47 49 54 62 69 73 77 83 90 96 103 110 117 123 129 133 134 135 136 135 133 133 134 135 137 140 144 147 151 156 162 168 174 180 187 193 200 206 212 218 223
333 329 324 316 308 302 300 300 301 304 307 309 312 316 319 322 327 333 336 339 342 343 343 342 340 334 312 262 233 215 198 177 155 144 126 99 79 65 60 58 52 47 45 42 39 38 37 39 50 66 78 87 95 100 104 108 113 118 122 126 130 135 139 141 140 141 144 146 149 152 156 159 166 174 181 189 197 203 210 216 222 227 231 235 238
332 330 328 324 319 313 308 305 305 306 308 309 311 314 317 322 328 335 338 341 344 345 346 349 352 351 330 239 219 207 199 195 195 194 190 177 154 100 60 44 30 23 22 23 23 24 26 26 32 51 76 93 101 108 114 118 121 124 127 131 134 138 142 144 146 150 156 161 165 171 177 184 193 200 206 212 218 222 227 231 234 237 240 243 245
334 331 327 322 320 319 317 316 316 315 315 315 316 316 318 324 331 338 341 343 346 349 354 360 4 9 19 185 207 204 203 205 208 209 208 210 217 231 250 318 336 337 340 343 343 343 343 347 353 358 46 99 105 110 117 121 125 128 131 134 138 143 148 153 157 162 167 172 176 181 188 194 201 207 212 218 223 227 231 236 239 243 246 250 252
338 334 329 324 320 319 318 320 322 322 323 323 321 320 322 328 335 340 343 345 348 354 1 8 14 19 28 52 169 200 208 212 214 217 221 227 234 244 257 273 288 298 306 310 312 310 300 279 264 263 262 248 209 170 155 142 134 130 129 130 133 138 143 147 151 154 159 163 167 174 183 192 201 207 214 221 226 232 237 241 246 250 253 256 258
338 334 330 327 323 320 318 318 319 321 322 323 322 322 326 331 337 343 345 347 352 358 4 11 20 23 23 30 93 199 215 218 220 223 227 231 237 247 257 265 275 285 293 297 299 299 293 275 250 241 240 232 213 193 176 157 141 132 130 130 133 135 138 143 147 152 158 165 173 184 195 205 211 216 221 226 231 236 241 244 247 250 252 254 257
339 334 330 326 323 320 318 317 317 316 317 317 317 320 326 332 338 345 348 351 356 1 5 11 20 23 20 19 24 4 227 226 227 230 233 237 243 251 260 267 275 283 291 294 292 286 272 235 181 159 153 151 146 142 135 129 130 135 141 149 154 158 162 167 171 173 177 183 191 200 207 213 217 221 226 230 233 236 240 242 245 249 253 258 264
344 339 334 329 325 322 319 317 314 312 310 310 313 319 325 329 338 349 352 354 359 3 5 9 17 22 22 22 25 30 30 351 249 243 245 249 254 260 265 270 275 280 285 284 270 242 199 165 148 138 132 129 129 130 132 138 152 164 170 175 176 174 174 176 178 183 190 199 207 213 217 220 224 226 229 231 233 236 239 245 252 261 269 277 284
346 345 341 336 330 325 322 319 315 310 308 309 312 318 321 326 340 352 356 357 359 2 4 7 12 18 24 29 35 41 44 46 47 47 39 292 260 257 257 259 258 256 247 218 186 170 164 161 154 148 147 151 160 172 177 179 185 187 186 184 183 181 182 187 193 202 209 213 217 221 225 227 230 232 233 235 239 245 254 265 274 282 288 292 296
343 345 344 341 336 330 324 319 315 311 309 310 314 316 315 323 342 354 358 359 358 359 0 1 2 8 21 36 48 53 55 57 60 63 68 81 97 118 151 186 207 208 198 189 182 183 189 194 190 186 183 182 186 193 194 195 198 200 200 200 200 202 205 210 214 217 222 225 228 233 238 241 244 246 248 251 258 266 273 280 285 288 291 295 297
338 341 344 343 341 336 329 321 315 312 310 310 313 312 307 318 339 353 358 360 358 355 355 352 341 333 337 15 84 93 90 91 95 96 98 110 141 204 227 226 227 223 212 203 206 219 232 231 220 212 208 208 211 215 218 220 220 219 215 215 217 219 223 228 230 233 237 242 248 253 259 262 264 265 267 269 274 278 280 284 287 290 293 295 296
331 335 339 341 342 340 335 325 316 312 311 310 307 301 297 307 329 347 357 358 355 348 345 340 326 306 288 265 214 165 147 143 144 146 152 159 172 203 231 241 245 246 241 239 242 246 248 248 244 240 239 237 237 238 237 235 232 230 229 230 233 236 240 243 246 250 255 261 265 270 273 275 276 277 278 280 282 285 287 289 291 292 293 295 296
323 326 331 335 338 339 337 330 319 311 309 307 298 284 286 301 320 338 348 350 348 343 336 328 317 301 281 261 239 200 174 165 157 155 168 192 212 238 256 264 267 268 266 264 262 259 258 256 254 254 254 253 251 251 248 244 242 242 243 244 247 251 254 257 261 265 268 271 274 276 279 280 282 284 286 287 288 290 291 292 293 294 295 296 298